www.pogodaiklimat.ru

Погода и климат >> Архив погоды >> Португалия >> Понта-Делгада


ПОГОДА в Понта-Делгаде

  • Прогноз погоды в Понта-Делгаде
  • Монитор погоды в Понта-Делгаде

АРХИВ ПОГОДЫ в Понта-Делгаде

Время (UTC), дата Ветер
(напр.,м/с)
 
Видим.   Явления Облачность Т
(С)
Тd
(С)
f
(%)
Тe
(С)
Тes
(С)
Комфортность P
(гПа)
Po
(гПа)
Тmin
(С)
Tmax
(С)
R
(мм)
R24
(мм)
S
(см)
06 17.07 С 3 35 км 1/1 750 м
[Cu hum]
+15.7 +16 +16 1028.6 1019.4 +15.6
09 17.07 ЮЗ 1 30 км 1/1 600 м
[Cu Sc]
+20.9 +20 +25 1029.0 1019.9
12 17.07 ЮЗ 2 30 км 1/1 660 м
[Cu Sc]
+22.1 +19 +35 опасность
простуды
1029.5 1020.4
15 17.07 ЮЗ 3 30 км 1/1 750 м
[Cu Sc]
+23.9 +20 +34 опасность
простуды
1029.1 1020.1
18 17.07 З 4 30 км 1/1 750 м
[Cu Sc]
+22.5 +19 +23 1028.5 1019.5 +24.0
21 17.07 З 3 30 км 3/3 750 м
[Cu Sc]
+20.6 +16.9 79 +24 +24 комфорт 1028.8 1019.7
00 18.07 С 2
{8}
30 км 3/3 600 м
[Cu Sc]
+18.0 +16.4 90 +19 +19 1028.9 1019.7
03 18.07 СЗ 1 25 км 3/3 540 м
[Cu Sc]
+17.8 +19 +19 1027.8 1018.6
06 18.07 СЗ 1 25 км 1/1 480 м
[Cu Sc]
+17.3 +18 +18 1027.4 1018.2 +17.2
09 18.07 С 1 30 км 1/1 540 м
[Cu Sc]
+21.4 +19 +24 1027.5 1018.5
12 18.07 З 4 30 км 1/1 600 м
[Cu Sc]
+22.9 +19.3 80 +29 +29 очень
душно
1027.3 1018.3
15 18.07 З 5 30 км 1/1 600 м
[Cu Sc]
+23.5 +20.0 81 +29 +38 душно 1026.5 1017.5
18 18.07 З 5 30 км 1/1 660 м
[Cu Sc]
+23.2 +20.4 84 +30 +33 очень
душно
1025.5 1016.5 +24.4
21 18.07 З 5 30 км 3/1 540 м
[Cu Sc Ci fib]
+21.1 +19 +19 1025.4 1016.4
00 19.07 З 3
{5}
20 км 8/8 480 м
[Cu Sc]
+21.1 +21.1 100 +26 +26 душно 1025.6 1016.5
03 19.07 З 4
{6}
н/о н/о +20.8 -26.0 3 +19 +19 1024.5 1015.5
06 19.07 З 4
{6}
н/о н/о +20.8 +19 +19 1024.4 1015.3 +20.6
09 19.07 З 4
{6}
15 км 9/9 180 м
[Cu Sc]
+21.1 +19 +19 1024.5 1015.5
12 19.07 З 3
{5}
15 км 9/9 180 м
[Cu Sc]
+22.4 +19 +21 1024.9 1015.9
15 19.07 З 4 25 км 8/8 210 м
[Cu Sc]
+23.5 +20 +22 1024.3 1015.3
18 19.07 З 4
{6}
25 км 5/5 210 м
[Cu Sc]
+23.9 +20 +22 1023.4 1014.5 +24.4
21 19.07 З 3
{5}
н/о н/о +21.6 +19 +19 1023.9 1014.8
00 20.07 -6
{6}
20 км н/о +21.3 +19 +19 1024.5 1015.4
03 20.07 З 4 15 км 9/9 180 м
[Cu Sc]
+20.9 +19 +19 1023.6 1014.6
06 20.07 З 2 15 км 8/8 360 м
[Cu Sc]
+20.7 +20 +20 1023.3 1014.3 +20.6
09 20.07 З 3 25 км 4/4 150 м
[Cu Sc]
+21.5 +19 +21 1023.9 1014.9
12 20.07 З 3
{5}
30 км 3/3 210 м
[Cu Sc]
+23.8 +20 +30 1024.5 1015.5
15 20.07 З 3
{5}
30 км 4/4 210 м
[Cu Sc]
+24.7 +21 +30 комфорт 1024.3 1015.4
18 20.07 ЮЗ 2 30 км 3/3 270 м
[Cu Sc]
+24.1 +20 +25 1024.0 1015.0 +25.5
21 20.07 ЮЗ 2
{5}
30 км 3/1 240 м
[Cu Sc Ac trans]
+21.7 +19 +19 1024.4 1015.4
00 21.07 Ю 3 25 км 8/8 480 м
[Cu Sc]
+21.4 +19 +19 1024.6 1015.6
03 21.07 Ю 4
{7}
25 км 3/3 480 м
[Cu Sc]
+21.3 +19 +19 1023.1 1014.1
06 21.07 Ю 5 25 км 3/1 480 м
[Cu Sc]
+21.2 +19 +19 1022.2 1013.2 +21.0
09 21.07 Ю 4
{8}
25 км 3/1 420 м
[Cu Sc Ac trans]
+22.3 +19 +22 1022.7 1013.7
12 21.07 ЮЗ 4-7
{9}
25 км 3/3 540 м
[Cu Sc]
+24.1 +20 +28 1022.9 1013.9
15 21.07 Ю 6-9
{11}
30 км 3/3 480 м
[Cu med, cong]
+24.2 +20 +25 1022.1 1013.2
18 21.07 ЮЗ 4-7
{8}
30 км 1/1 420 м
[Cu med, cong Ac trans]
+24.2 +20 +24 1021.2 1012.3 +25.7
21 21.07 Ю 6-9
{9}
20 км 5/4 210 м
[Cu Sc Ac trans]
+22.2 +19 +19 1021.7 1012.7
00 22.07 Ю 5-7
{10}
20 км 8/3 180 м
[Cu Sc Ac trans]
+22.0 +19 +19 1022.0 1013.0
03 22.07 Ю 6-10
{10}
20 км 9/4 180 м
[Cu Sc Ac trans]
+21.8 +19 +19 1019.9 1010.9
06 22.07 ЮЗ 6-10
{12}
20 км 9/8 180 м
[Cu Sc Ac trans]
+22.0 +19 +19 1019.2 1010.2 +21.7
09 22.07 ЮЗ 7-12
{12}
1800 м дождь {ливн. осадки} 10/10 120 м
[Frnb]
+22.3 +19 +19 1019.4 1010.4
12 22.07 ЮЗ 6-9
{10}
8000 м {дождь, морось} 9/8 120 м
[Frnb Ac trans]
+22.4 +19 +20 1019.2 1010.3
15 22.07 ЮЗ 6-9
{14}
1500 м гроза, ливневой дождь 10/8 60 м
[Cb cap Ac As]
+22.0 +19 +19 1018.7 1009.7
18 22.07 З 3
{6}
10 км {гроза, дождь} 9/8 120 м
[Cb cap Ac trans]
+20.9 +20 +20 1018.1 1009.1 +22.9 19
21 22.07 З 2 10 км 9/8 180 м
[Cu Sc Ac trans]
+21.5 +19 +19 1018.7 1009.7
00 23.07 З 4
{8}
4500 м дымка 10/10 30 м
[Cu Sc]
+21.2 +19 +19 1019.0 1010.0
03 23.07 СЗ 4
{7}
15 км 5/1 480 м
[Cu Sc Ac trans Ci fib]
+20.7 +19 +19 1018.8 1009.8
06 23.07 З 5 20 км 6/1 360 м
[Cu Sc Ac trans Ci sp]
+20.7 +19 +19 1018.4 1009.4 +20.0
09 23.07 З 2 20 км 8/6 360 м
[Cu Sc Ci sp]
+21.8 +19 +21 1018.9 1009.9
12 23.07 З 4 15 км 9/9 150 м
[Cu Sc]
+22.6 +19 +20 1019.5 1010.5
15 23.07 З 5
{8}
н/о н/о +23.9 +20 +20 1018.8 1009.8
18 23.07 ЮЗ 4
{7}
н/о н/о +22.8 -24.6 3 +20 +20 1017.9 1009.0 +24.4
21 23.07 ЮЗ 5
{8}
15 км 9/9 120 м
[Cu Sc]
+21.7 +19 +19 1017.8 1008.8
00 24.07 З 6 8000 м 10/10 90 м
[Cu Sc]
+21.5 +19 +19 1017.0 1008.0
03 24.07 З 8
{12}
10 км 10/10 120 м
[Cu Sc]
+21.4 +19 +19 1015.5 1006.5

 

Местоположение метеостанции Понта-Делгада (Португалия): широта 37.73 долгота -25.70 высота над уровнем моря 72 м.

В архиве по умолчанию представлена погода в Понта-Делгаде за последнюю неделю. Архивные данные за месяц целиком и за предыдущие месяцы, начиная с января 2011 года, Вы можете получить, выбрав интересующий диапазон дат из раскрывающегося списка и нажав кнопку "Ввод!".


*Определитесь, кто Вы:
робот инопланетянин человек

Внимание! Время в таблицах - всемирное. Для получения местного времени необходимо прибавить поправку, которая равна 0 ч.

Смотрите также архив погоды в соседних городах и на ближайших метеорологических станциях:

Погода в Санта-Марии (Португалия) (97 км)
Погода в Аэропорту Лажеша (Португалия) (168 км)
Погода в Ангра-ду-Эроижму (Португалия) (168 км)
Погода в Сан-Жоржи (Португалия) (239 км)
Погода на Острове Грасьоса (Португалия) (253 км)
Погода в Пико (Португалия) (256 км)
Погода в Орте (Португалия) (271 км)
Погода в Каштелу-Бранку (Португалия) (278 км)
Погода на Флошише (Португалия) (509 км)
Погода в Фуншале (Португалия) (980 км)

Пояснения к столбцам:

Ветер - указаны скорость ветра в м/с - средняя за 10 мин, порывы в срок и между сроками (в фигурных скобках) и направление, откуда дует ветер: С - северный, СВ - северо-восточный, В - восточный, ЮВ - юго-восточный, Ю - южный, ЮЗ - юго-западный, З - западный, СЗ - северо-западный.
Видимость - горизонтальная дальность видимости в метрах или километрах. При видимости от 1 до 10 км при отсутствии осадков обычно наблюдается дымка, при ухудшении видимости до 1 км и менее - туман. В сухую погоду видимость может ухудшаться дымом, пылью или мглою.
Явления - указаны атмосферные явления, наблюдавшиеся в срок или в последний час перед сроком; фигурными скобками обозначены явления, наблюдавшиеся между сроками (за 1-3 часа до срока); квадратными скобками обозначены град или гололедные отложения с указанием их диаметра в мм.
Облачность - указаны через наклонную черту общая и нижняя облачность в баллах и высота нижней границы облаков в метрах; квадратными скобками обозначены формы облаков: Ci - перистые, Cs - перисто-слоистые, Cc - перисто-кучевые, Ac - высококучевые, As - высокослоистые, Sc - слоисто-кучевые, Ns - слоисто-дождевые, Cu - кучевые, Cb - кучево-дождевые. Подробнее классификацию облаков см. в Атласе облаков (PDF).
T - Температура воздуха - температура, измеренная на высоте 2 м над землей.
Td - Температура точки росы - температура, при понижении до которой содержащийся в воздухе водяной пар достигнет насыщения.
f - Относительная влажность воздуха - влажноcть воздуха, измеренная на высоте 2 м над землей.
Te - Эффективная температура - температура, которую ощущает одетый по сезону человек в тени. Характеристика душности погоды. При расчете учитывается влияние влажности воздуха и скорости ветра на теплоощущения человека.
Tes - Эффективная температура на солнце - температура, которую ощущает человек, с поправкой на солнечный нагрев. Характеристика знойности погоды. Зависит от высоты солнца над горизонтом, облачности и скорости ветра. Ночью, в пасмурную погоду, а также при ветре 12 м/с и более поправка равна нулю.
P - Атмосферное давление - приведенное к уровню моря атмосферное давление.
Po - Атмосферное давление - измеренное на уровне метеостанции атмосферное давление.
Tmin - Минимальная температура - минимум температуры воздуха на высоте 2 м над землей.
Tmax - Максимальная температура - максимум температуры воздуха на высоте 2 м над землей.
R - Количество осадков - Количество выпавших осадков за период времени, мм. При наведении курсора мыши на число - период времени, за который выпало указанное количество осадков.
R24 - Количество осадков - Количество выпавших осадков за 24 часа, мм.
S - Снежный покров - Высота снежного покрова, см. При наведении курсора мыши на число - состояние снежного покрова и степень покрытия местности в баллах.